Location: Peebles
(55.6412°N, 3.1714°W)
Time: 03:15:14
(UTC+01:00)

NOAA 16 DEB - Visible Passes

Search period start: 01 July 2022 00:00
Search period end: 11 July 2022 00:00
Orbit: 833 x 866 km, 98.7° (Epoch: 30 June)

Date Brightness Start Highest point End Pass type
(mag) Time Alt. Az. Time Alt. Az. Time Alt. Az.
01 Jul ? 22:55:27 10° SSW 23:00:06 27° W 23:04:47 10° NW visible
05 Jul ? 23:51:16 10° W 23:53:05 11° W 23:54:55 10° WNW visible
06 Jul ? 23:37:47 10° WSW 23:40:42 14° W 23:43:38 10° NW visible
07 Jul ? 23:24:43 10° SW 23:28:20 17° W 23:31:59 10° NW visible
08 Jul ? 23:11:52 10° SW 23:16:00 21° W 23:20:09 10° NW visible
09 Jul ? 22:59:08 10° SW 23:03:41 25° W 23:08:15 10° NW visible
10 Jul ? 22:46:31 10° SSW 22:51:23 30° W 22:56:16 10° NNW visible
